Joliet, IL

2:39 PM CST on December 04, 2016 (GMT -0600)
Joliet Regional

Weather History for KJOT - September, 2013

Change the Weather History Date:

Saturday, September 7, 2013

  Actual Average (KLOT) Record (KLOT)
Temperature  
Mean Temperature 73 °F 69 °F  
Max Temperature 87 °F 79 °F 91 °F (2002)
Min Temperature 60 °F 58 °F 47 °F (1993)
Degree Days  
Heating Degree Days 0 1  
Month to date heating degree days 7  
Since 1 July heating degree days 15  
Cooling Degree Days 8 5  
Month to date cooling degree days 37  
Year to date cooling degree days 790  
Growing Degree Days 23 (Base 50)    
Moisture  
Dew Point 62 °F    
Average Humidity 71    
Maximum Humidity 97    
Minimum Humidity 33    
Precipitation  
Precipitation 0.00 in 0.12 in 1.85 in (1995)
Month to date precipitation 0.89  
Year to date precipitation 28.71  
Sea Level Pressure  
Sea Level Pressure 29.98 in    
Wind  
Wind Speed 2 mph (SW)    
Max Wind Speed 10 mph    
Max Gust Speed -    
Visibility 9 miles    
Events Rain , Thunderstorm    
T = Trace of Precipitation, MM = Missing Value Source: NWS Daily Summary

Daily Weather History Graph

Daily Weather History Graph

Search for Another Location

Airport or City:

Trip Planner

Search our weather history database for the weather conditions in past years. The results will help you decide how hot, cold, wet, or windy it might be!

Date:

Astronomy

Sep. 07, 2013 Rise Set
Actual Time 6:25 AM CDT 7:15 PM CDT
Civil Twilight 5:57 AM CDT 7:43 PM CDT
Nautical Twilight 5:23 AM CDT 8:16 PM CDT
Astronomical Twilight 4:48 AM CDT 8:51 PM CDT
Moon 8:41 AM CDT (9/7) 8:10 PM CDT (9/7)
Length of Visible Light 13h 46m
Length of Day
12h 50m
Waxing Crescent, 5% of the Moon is Illuminated
Sep 7
Waxing Crescent
Sep 12
First Quarter
Sep 19
Full
Sep 26
Last Quarter
Oct 4
New

Hourly Weather History & Observations

Time (CDT) Temp. Heat Index Dew Point Humidity Pressure Visibility Wind Dir Wind Speed Gust Speed Precip Events Conditions
12:15 AM 66.7 °F - 64.0 °F 91% 30.04 in 10.0 mi Calm Calm - N/A   Clear
12:35 AM 65.5 °F - 62.8 °F 91% 30.04 in 10.0 mi Calm Calm - N/A   Clear
12:55 AM 64.4 °F - 62.6 °F 94% 30.04 in 7.0 mi Calm Calm - N/A   Clear
1:15 AM 64.0 °F - 62.6 °F 95% 30.04 in 5.0 mi Calm Calm - N/A   Clear
1:35 AM 64.0 °F - 62.6 °F 95% 30.03 in 7.0 mi Calm Calm - N/A   Clear
1:55 AM 63.7 °F - 62.2 °F 95% 30.03 in 7.0 mi Calm Calm - N/A   Clear
2:15 AM 63.5 °F - 62.4 °F 96% 30.03 in 7.0 mi Calm Calm - N/A   Clear
2:35 AM 63.5 °F - 62.2 °F 96% 30.03 in 7.0 mi Calm Calm - N/A   Clear
2:55 AM 62.4 °F - 61.3 °F 96% 30.03 in 4.0 mi Calm Calm - N/A   Clear
3:15 AM 61.2 °F - 60.1 °F 96% 30.02 in 1.0 mi Calm Calm - N/A   Mist
3:35 AM 61.7 °F - 60.8 °F 97% 30.03 in 2.0 mi Calm Calm - N/A   Clear
3:55 AM 62.4 °F - 61.5 °F 97% 30.02 in 2.0 mi Calm Calm - N/A   Clear
4:15 AM 61.7 °F - 60.8 °F 97% 30.02 in 5.0 mi Calm Calm - N/A   Clear
4:35 AM 62.1 °F - 61.2 °F 97% 30.02 in 7.0 mi Calm Calm - N/A   Clear
4:55 AM 62.1 °F - 61.0 °F 96% 30.02 in 4.0 mi Calm Calm - N/A   Clear
5:15 AM 63.5 °F - 61.0 °F 91% 30.02 in 7.0 mi Calm Calm - N/A   Clear
5:35 AM 64.0 °F - 61.3 °F 91% 30.03 in 7.0 mi Calm Calm - N/A   Clear
5:55 AM 62.8 °F - 59.7 °F 90% 30.03 in 7.0 mi Calm Calm - N/A   Clear
6:15 AM 60.8 °F - 59.0 °F 94% 30.02 in 2.0 mi Calm Calm - N/A   Clear
6:35 AM 61.9 °F - 60.8 °F 96% 30.02 in 4.0 mi Calm Calm - N/A   Clear
6:55 AM 63.1 °F - 61.5 °F 94% 30.02 in 5.0 mi Calm Calm - N/A   Clear
7:15 AM 65.3 °F - 61.9 °F 89% 30.03 in 7.0 mi Calm Calm - N/A   Clear
7:35 AM 65.7 °F - 63.0 °F 91% 30.03 in 7.0 mi Calm Calm - N/A   Clear
7:55 AM 67.8 °F - 63.1 °F 85% 30.03 in 10.0 mi Calm Calm - N/A   Clear
8:15 AM 69.4 °F - 63.3 °F 81% 30.02 in 10.0 mi SW 3.5 mph - N/A   Clear
8:35 AM 70.7 °F - 62.6 °F 75% 30.02 in 10.0 mi WSW 5.8 mph - N/A   Clear
8:55 AM 73.2 °F - 61.7 °F 67% 30.02 in 10.0 mi SW 6.9 mph - N/A   Clear
9:15 AM 73.8 °F - 61.9 °F 66% 30.00 in 10.0 mi SSW 6.9 mph - N/A Thunderstorm Clear
9:35 AM 73.9 °F - 62.4 °F 67% 30.00 in 10.0 mi Calm Calm - N/A Rain , Thunderstorm Light Thunderstorms and Rain
9:55 AM 72.5 °F - 63.5 °F 73% 30.01 in 10.0 mi Calm Calm - N/A Rain Light Rain
10:15 AM 75.2 °F - 63.7 °F 67% 30.02 in 10.0 mi WSW 3.5 mph - N/A   Clear
10:35 AM 77.0 °F - 63.3 °F 63% 30.01 in 10.0 mi WSW 8.1 mph - N/A   Clear
10:55 AM 79.5 °F - 62.2 °F 55% 30.01 in 10.0 mi WSW 8.1 mph - N/A   Clear
11:15 AM 80.2 °F 81.4 °F 62.2 °F 54% 30.00 in 10.0 mi WSW 8.1 mph - N/A   Clear
11:35 AM 81.7 °F 82.3 °F 60.8 °F 49% 29.99 in 10.0 mi West 8.1 mph - N/A   Clear
11:55 AM 82.0 °F 82.4 °F 60.1 °F 47% 29.98 in 10.0 mi WSW 10.4 mph - N/A   Clear
12:15 PM 82.6 °F 82.9 °F 60.6 °F 47% 29.97 in 10.0 mi WSW 10.4 mph - N/A   Clear
12:35 PM 83.8 °F 83.6 °F 59.0 °F 43% 29.96 in 10.0 mi SSW 5.8 mph - N/A   Clear
12:55 PM 83.5 °F 83.1 °F 58.5 °F 42% 29.96 in 10.0 mi SW 8.1 mph - N/A   Clear
1:15 PM 83.5 °F 83.2 °F 58.6 °F 43% 29.96 in 10.0 mi SW 9.2 mph - N/A   Clear
1:35 PM 81.9 °F 82.5 °F 61.2 °F 49% 29.95 in 10.0 mi SSW 8.1 mph - N/A   Clear
1:55 PM 82.9 °F 83.7 °F 61.9 °F 49% 29.96 in 10.0 mi SW 6.9 mph - N/A   Clear
2:15 PM 84.2 °F 84.4 °F 60.8 °F 45% 29.94 in 10.0 mi SSW 6.9 mph - N/A   Clear
2:35 PM 84.2 °F 84.0 °F 59.7 °F 43% 29.95 in 10.0 mi SSW 8.1 mph - N/A   Clear
2:55 PM 84.4 °F 84.2 °F 59.5 °F 43% 29.94 in 10.0 mi SSW 8.1 mph - N/A   Clear
3:15 PM 86.0 °F 85.2 °F 58.5 °F 39% 29.94 in 10.0 mi SSW 8.1 mph - N/A   Clear
3:35 PM 86.9 °F 85.1 °F 54.5 °F 33% 29.94 in 10.0 mi WSW 8.1 mph - N/A   Clear
3:55 PM 86.5 °F 85.1 °F 55.6 °F 35% 29.94 in 10.0 mi West 8.1 mph - N/A   Clear
4:15 PM 84.7 °F 83.9 °F 57.4 °F 39% 29.95 in 10.0 mi WSW 4.6 mph - N/A   Clear
4:35 PM 84.2 °F 83.8 °F 59.0 °F 42% 29.94 in 10.0 mi SW 3.5 mph - N/A   Clear
4:55 PM 84.7 °F 84.2 °F 58.8 °F 41% 29.93 in 10.0 mi WSW 4.6 mph - N/A   Clear
5:15 PM 83.7 °F 83.9 °F 60.6 °F 46% 29.94 in 10.0 mi SW 5.8 mph - N/A   Clear
5:35 PM 82.8 °F 83.0 °F 60.3 °F 46% 29.94 in 10.0 mi SSW 4.6 mph - N/A   Clear
5:55 PM 81.5 °F 82.1 °F 60.4 °F 49% 29.93 in 10.0 mi SSW 4.6 mph - N/A   Scattered Clouds
6:15 PM 80.6 °F 81.5 °F 61.2 °F 51% 29.93 in 10.0 mi SSW 3.5 mph - N/A   Scattered Clouds
6:35 PM 79.0 °F - 61.9 °F 56% 29.92 in 10.0 mi Calm Calm - N/A   Scattered Clouds
6:55 PM 79.2 °F - 61.9 °F 55% 29.91 in 10.0 mi SSW 4.6 mph - N/A   Clear
7:15 PM 78.1 °F - 62.2 °F 58% 29.92 in 10.0 mi SSW 3.5 mph - N/A   Clear
7:35 PM 77.0 °F - 62.8 °F 61% 29.92 in 10.0 mi Calm Calm - N/A   Clear
7:55 PM 75.2 °F - 63.5 °F 67% 29.92 in 10.0 mi SSW 4.6 mph - N/A   Clear
8:15 PM 76.1 °F - 63.7 °F 65% 29.92 in 10.0 mi SSW 3.5 mph - N/A   Clear
8:35 PM 76.5 °F - 63.5 °F 64% 29.93 in 10.0 mi Calm Calm - N/A   Clear
8:55 PM 74.5 °F - 64.4 °F 71% 29.94 in 10.0 mi Calm Calm - N/A   Clear
9:15 PM 70.7 °F - 64.4 °F 80% 29.94 in 10.0 mi Calm Calm - N/A   Clear
9:35 PM 70.9 °F - 64.6 °F 80% 29.95 in 10.0 mi Calm Calm - N/A   Scattered Clouds
9:55 PM 70.5 °F - 65.1 °F 83% 29.95 in 10.0 mi Calm Calm - N/A   Scattered Clouds
10:15 PM 69.4 °F - 64.8 °F 85% 29.94 in 10.0 mi Calm Calm - N/A   Clear
10:35 PM 70.9 °F - 65.5 °F 83% 29.94 in 10.0 mi Calm Calm - N/A   Clear
10:55 PM 68.9 °F - 64.8 °F 87% 29.94 in 10.0 mi Calm Calm - N/A   Clear
11:15 PM 68.4 °F - 64.6 °F 88% 29.95 in 10.0 mi Calm Calm - N/A   Clear
11:35 PM 68.4 °F - 64.6 °F 88% 29.95 in 10.0 mi Calm Calm - N/A   Scattered Clouds
11:55 PM 69.8 °F - 65.7 °F 87% 29.95 in 10.0 mi Calm Calm - N/A   Scattered Clouds